| time (UTC) | temp F | wind direction | speed MPH | gust MPH | rain 1hr in | rain 24hr in | rain mn in | humidity % | barometer mb |
| 20260505121553 | 51 | 360 | 12.0 | 19.0 | 0.00 | 0.23 | 0.18 | 19 | 1010.7 |
| 20260505120114 | 52 | 360 | 11.0 | 18.0 | 0.00 | 0.23 | 0.18 | 20 | 1010.7 |
| 20260505114556 | 54 | 360 | 9.0 | 15.0 | 0.00 | 0.23 | 0.18 | 21 | 1010.7 |
| 20260505113104 | 54 | 360 | 6.0 | 11.0 | 0.00 | 0.23 | 0.18 | 20 | 1010.7 |
| 20260505111555 | 0 | 360 | 5.0 | 14.0 | 0.00 | 0.23 | 0.18 | 1010.8 | |
| 20260505110111 | 0 | 360 | 5.0 | 11.0 | 0.00 | 0.23 | 0.18 | 1010.5 | |
| 20260505101603 | 0 | 0 | 0.0 | 0.0 | 0.01 | 0.23 | 0.18 | 1010.4 | |
| 20260505100059 | 0 | 0 | 0.0 | 0.0 | 0.01 | 0.23 | 0.18 | 1010.3 | |
| 20260505094559 | 0 | 0 | 0.0 | 0.0 | 0.00 | 0.22 | 0.17 | 1010.4 | |
| 20260505093108 | 0 | 0 | 0.0 | 0.0 | 0.00 | 0.22 | 0.16 | 1010.4 | |
| 20260505091602 | 0 | 0 | 0.0 | 1.0 | 0.00 | 0.22 | 0.16 | 1010.3 | |
| 20260505090100 | 0 | 360 | 0.0 | 2.0 | 0.00 | 0.22 | 0.16 | 1010.2 | |
| 20260505084555 | 0 | 0 | 0.0 | 0.0 | 0.00 | 0.22 | 0.16 | 1010.3 | |
| 20260505083059 | 0 | 0 | 0.0 | 0.0 | 0.00 | 0.22 | 0.16 | 1010.3 | |
| 20260505081623 | 0 | 0 | 0.0 | 0.0 | 0.00 | 0.22 | 0.16 | 1010.2 | |
| 20260505080109 | 0 | 0 | 0.0 | 0.0 | 0.00 | 0.22 | 0.16 | 1010.2 | |
| 20260505074558 | 0 | 0 | 0.0 | 1.0 | 0.00 | 0.22 | 0.16 | 1010.3 | |
| 20260505073059 | 0 | 0 | 0.0 | 1.0 | 0.01 | 0.22 | 0.16 | 1010.3 | |
| 20260505071601 | 0 | 0 | 0.0 | 0.0 | 0.01 | 0.22 | 0.16 | 1010.6 | |
| 20260505070111 | 0 | 0 | 0.0 | 0.0 | 0.03 | 0.22 | 0.16 | 1010.7 | |
| 20260505064600 | 0 | 0 | 0.0 | 0.0 | 0.03 | 0.21 | 0.15 | 1010.9 | |
| 20260505063057 | 0 | 0 | 0.0 | 0.0 | 0.03 | 0.20 | 0.14 | 1011.3 | |
| 20260505061600 | 0 | 0 | 0.0 | 0.0 | 0.06 | 0.20 | 0.14 | 1011.4 | |
| 20260505060058 | 0 | 0 | 0.0 | 0.0 | 0.08 | 0.18 | 0.13 | 1011.6 | |
| 20260505054559 | 0 | 0 | 0.0 | 0.0 | 0.09 | 0.18 | 0.12 | 1011.6 | |
| 20260505053103 | 0 | 0 | 0.0 | 0.0 | 0.09 | 0.16 | 0.11 | 1011.7 | |
| 20260505051557 | 0 | 0 | 0.0 | 0.0 | 0.07 | 0.14 | 0.08 | 1011.7 | |
| 20260505041555 | 0 | 0 | 0.0 | 0.0 | 0.00 | 0.06 | 0.00 | 1011.8 | |
| 20260505040106 | 0 | 0 | 0.0 | 2.0 | 0.00 | 0.06 | 0.00 | 1011.9 | |
| 20260505034555 | 0 | 360 | 1.0 | 4.0 | 0.00 | 0.06 | 0.00 | 1011.9 | |
| 20260505033055 | 0 | 0 | 0.0 | 0.0 | 0.00 | 0.06 | 0.00 | 1011.9 | |
| 20260505031558 | 0 | 0 | 0.0 | 0.0 | 0.00 | 0.06 | 0.00 | 1011.9 | |
| 20260505030105 | 0 | 0 | 0.0 | 0.0 | 0.00 | 0.06 | 0.00 | 1011.9 | |
| 20260505024555 | 0 | 0 | 0.0 | 1.0 | 0.00 | 0.06 | 0.00 | 1012.0 | |
| 20260505023102 | 0 | 0 | 0.0 | 1.0 | 0.00 | 0.06 | 0.00 | 1012.1 | |
| 20260505021557 | 0 | 360 | 0.0 | 3.0 | 0.00 | 0.06 | 0.00 | 1012.2 | |
| 20260505020057 | 0 | 360 | 0.0 | 2.0 | 0.00 | 0.05 | 0.00 | 1012.4 | |
| 20260505014558 | 0 | 360 | 3.0 | 5.0 | 0.00 | 0.05 | 0.00 | 1012.4 | |
| 20260505013055 | 0 | 0 | 0.0 | 0.0 | 0.00 | 0.05 | 0.00 | 1012.3 | |
| 20260505011556 | 0 | 0 | 0.0 | 2.0 | 0.00 | 0.05 | 0.00 | 1012.2 | |
| 20260505004555 | 0 | 360 | 2.0 | 4.0 | 0.00 | 0.05 | 0.00 | 1012.4 | |
| 20260505003104 | 0 | 360 | 1.0 | 3.0 | 0.00 | 0.05 | 0.00 | 1012.8 | |
| 20260505001558 | 48 | 0 | 0.0 | 2.0 | 0.00 | 0.05 | 0.00 | 23 | 1013.0 |
| 20260505000112 | 48 | 0 | 0.0 | 2.0 | 0.00 | 0.05 | 0.00 | 23 | 1013.1 |
| 20260504234557 | 48 | 0 | 0.0 | 1.0 | 0.00 | 0.05 | 0.00 | 23 | 1013.2 |
| 20260504233105 | 48 | 0 | 0.0 | 0.0 | 0.00 | 0.05 | 0.00 | 23 | 1013.3 |
| 20260504231558 | 48 | 0 | 0.0 | 0.0 | 0.00 | 0.05 | 0.00 | 23 | 1013.4 |
| 20260504230059 | 48 | 0 | 0.0 | 0.0 | 0.00 | 0.05 | 0.00 | 23 | 1013.5 |
| 20260504224601 | 48 | 0 | 0.0 | 0.0 | 0.00 | 0.05 | 0.00 | 23 | 1013.7 |
| 20260504223058 | 48 | 0 | 0.0 | 1.0 | 0.00 | 0.05 | 0.00 | 23 | 1013.8 |
| 20260504221556 | 48 | 0 | 0.0 | 0.0 | 0.00 | 0.05 | 0.00 | 23 | 1013.8 |
| 20260504220118 | 48 | 0 | 0.0 | 0.0 | 0.00 | 0.05 | 0.00 | 23 | 1014.0 |
| 20260504214559 | 48 | 0 | 1.0 | 3.0 | 0.00 | 0.05 | 0.05 | 22 | 1013.8 |
| 20260504213100 | 47 | 360 | 1.0 | 3.0 | 0.00 | 0.05 | 0.05 | 22 | 1014.1 |
| 20260504211557 | 46 | 360 | 1.0 | 4.0 | 0.00 | 0.05 | 0.05 | 22 | 1014.2 |
| 20260504210058 | 46 | 360 | 1.0 | 3.0 | 0.00 | 0.05 | 0.05 | 21 | 1014.1 |
| 20260504204559 | 47 | 360 | 4.0 | 6.0 | 0.00 | 0.05 | 0.05 | 21 | 1014.3 |
| 20260504203055 | 48 | 360 | 4.0 | 5.0 | 0.00 | 0.05 | 0.05 | 21 | 1014.4 |
| 20260504201557 | 48 | 360 | 0.0 | 2.0 | 0.00 | 0.05 | 0.05 | 21 | 1014.4 |
| 20260504200101 | 48 | 2.0 | 4.0 | 0.00 | 0.05 | 0.05 | 21 | 1014.4 | |
| 20260504194556 | 48 | 360 | 2.0 | 4.0 | 0.00 | 0.05 | 0.05 | 20 | 1014.7 |
| 20260504193100 | 49 | 360 | 2.0 | 4.0 | 0.00 | 0.05 | 0.05 | 20 | 1014.6 |
| 20260504191559 | 49 | 360 | 3.0 | 4.0 | 0.00 | 0.05 | 0.05 | 20 | 1014.5 |
| 20260504190110 | 50 | 360 | 0.0 | 2.0 | 0.00 | 0.05 | 0.05 | 20 | 1014.5 |
| 20260504184613 | 50 | 0 | 0.0 | 2.0 | 0.00 | 0.05 | 0.05 | 20 | 1014.6 |
| 20260504183059 | 51 | 0 | 0.0 | 1.0 | 0.00 | 0.05 | 0.05 | 20 | 1014.7 |
| 20260504181600 | 51 | 0 | 0.0 | 1.0 | 0.00 | 0.05 | 0.05 | 19 | 1014.7 |
| 20260504180057 | 51 | 0 | 0.0 | 0.0 | 0.00 | 0.05 | 0.05 | 19 | 1014.8 |
| 20260504174559 | 51 | 0 | 0.0 | 1.0 | 0.00 | 0.05 | 0.05 | 19 | 1014.9 |
| 20260504173103 | 51 | 0 | 0.0 | 1.0 | 0.00 | 0.05 | 0.05 | 19 | 1014.9 |
| 20260504171556 | 51 | 360 | 0.0 | 2.0 | 0.00 | 0.05 | 0.05 | 19 | 1015.0 |
| 20260504170105 | 51 | 0 | 1.0 | 4.0 | 0.00 | 0.05 | 0.05 | 19 | 1015.3 |